STARLINK-3750, 52311

Orbit data source: Space-Track

STARLINK-3750, 52311 is a payload satellite owned by SpaceX/Seattle (US) in LEO that was launched on Thu, 21 Apr 2022 UTC via an FALCON 9 launch vehicle from the Air Force Eastern Test Range (AFETR). Payload-class satellites include a variety of spacecraft equipped with specific instruments for various scientific and technological missions. These include communications satellites like Starlink; space stations such as the ISS; scientific satellites like the Hubble; Earth observation satellites from companies like Planet Labs, Umbra, and HawkEye 360; GPS; miniature CubeSats for education and research; and military/defense satellites.

Loading next visibility...
Identifier
52311, 2022-041BC
Orbit
LEO
Country
Flag of USUS
Related business
Manufacturer
SpaceX/Seattle
Mission
Operational Commercial Communications
Bus & Motor
STARLINK, Unknown motor
Mass
297 kg wet, ~275 kg dry
Launch date (UTC)
2022-04-21 (4 years ago)
Launch vehicle
FALCON 9
Launch site
Air Force Eastern Test Range (AFETR)
Object type
Payload
Rocket body
Debris
Shape & HBR
Box + 1 Pan, 10.1 m
Radar Cross Section
11.087 m², Large (>1 m²)

Expand to show TLE details & history
Last TLE update: 21 hours ago

TLE from 21 hours ago
0 STARLINK-3750
1 52311U 22041BC  26236.45682477  .00003895  00000-0  12974-3 0  9994
2 52311  53.1609  48.2159 0001031  87.9524 272.1596 15.33540383241292
Epoch: 2026-08-24T10:57Z
TLE epoch observation values (Epoch: 2026-08-24T10:57:49.660Z)
Latitude
-0.00003°
Longitude
-88.9793°
Altitude
466.134 km
Speed
7.635 km/s
True Right ascension
03h 12m 51s
True Declination
0° 00' 00"
Sunlit
Object was in daylight at epoch
Visualization orbit readout
Latitude
Unknown
Longitude
Unknown
Altitude
Unknown
Speed
Unknown
Apparent Right ascension
Unknown
Apparent Declination
Unknown
Sunlit
N/A
Visualization observer readout
Local Sidereal Time
23:03:19
Azimuth
Unknown
Elevation
Unknown
Doppler factor
Unknown
Orbital elements
Apogee altitude
466.222 km
Perigee altitude
464.81 km
Semi-major axis
6,843.653 km
Eccentricity
0.0001
Inclination
53.1609°
RAAN
48.2159°
Arg. of periapsis
87.9524°
True anomaly
272.14779°
Mean anomaly
272.1596°
Eccentric anomaly
272.1537°
Mean motion
3.83364 °/min
Orbital period
93.91 mins
BSTAR
0.00012974
Loading maneuver chart data...
Computing Atmospheric mass density...

Documentation

Showing up to 5 results
|